OpenBCM V1.13 (Linux)

Packet Radio Mailbox

DB0FHN

[JN59NK Nuernberg]

 Login: GUEST





  
I0OJJ  > KEPS     14.01.26 02:33l 324 Lines 15466 Bytes #999 (0) @ AMSAT
BID : ORB26014.1
Read: GUEST OE5RCO DH1ME DJ6UX
Subj: 2Line Orbital Elements 26014.AMSAT
Path: DB0FHN<DB0RKB<DK0WUE<PD0LPM<IR0AAB<I0OJJ
Sent: 260114/0021z @:I0OJJ.ITA.EU [Rome] obcm1.13
From: I0OJJ @ I0OJJ.ITA.EU (Gustavo)
To:   KEPS @ AMSAT
X-Info: This message was generated automatically


QST de W1STR

AMSAT Orbital Elements for Amateur Satellites in TLE Format
From Orbital Analysis Office
New England Sci-Tech STEM Education Center
Natick MA January 14, 2026
To all radio amateurs


These element sets describe the orbits of various satellites 
in use by the amateur radio community. For details see:
www.amsat.org/keplerian-elements-formats/

A daily update of element sets is available at:
www.amsat.org/tle/daily-bulletin.txt
or without bulletin text:
www.amsat.org/tle/dailytle.txt


AO-07
1 07530U 74089B   26013.58647788 -.00000026  00000-0  12971-3 0  9990
2 07530 101.9966  25.1886 0012391  66.8418  48.3890 12.53694981341141
UO-11
1 14781U 84021B   26013.48638852  .00001125  00000-0  12156-3 0  9999
2 14781  97.7853 341.0318 0007263 348.2894  11.8154 14.90271383234083
AO-27
1 22825U 93061C   26013.11602527  .00000082  00000-0  48361-4 0  9990
2 22825  98.7099  80.4510 0008237 188.2723 171.8325 14.30890162684821
FO-29
1 24278U 96046B   26013.63999212 -.00000030  00000-0  25928-5 0  9996
2 24278  98.5443 243.4881 0350621 137.2578 225.6408 13.53264344452269
GO-32
1 25397U 98043D   26013.52787867  .00000068  00000-0  49399-4 0  9994
2 25397  98.9952   2.4790 0000718 353.9645   6.1524 14.24387659429319
ISS
1 25544U 98067A   26013.40249039  .00009179  00000-0  17283-3 0  9993
2 25544  51.6332 345.7221 0007762  13.3130 346.8062 15.49273572547762
NO-44
1 26931U 01043C   26013.37816067  .00000133  00000-0  80757-4 0  9997
2 26931  67.0513 284.6591 0007244 267.9464  92.0809 14.31876948268280
SO-50
1 27607U 02058C   26013.03883219  .00001105  00000-0  14937-3 0  9997
2 27607  64.5513 248.8509 0073445 290.7447  68.5799 14.82542377241453
CO-55
1 27844U 03031E   26013.55595278  .00000276  00000-0  13872-3 0  9999
2 27844  98.6767  24.0492 0008548 275.5394  84.4810 14.24211342169668
CO-57
1 27848U 03031J   26013.46768070  .00000255  00000-0  13126-3 0  9994
2 27848  98.6794  23.7987 0008518 296.0079  64.0222 14.23514660169368
RS-22
1 27939U 03042A   26013.64153275  .00001048  00000-0  17113-3 0  9993
2 27939  98.3380 193.6944 0012188  42.7930  45.5975 14.73073755192799
CO-58
1 28895U 05043F   26013.39074778  .00001469  00000-0  24192-3 0  9992
2 28895  98.2747 166.0121 0013877 340.7743  19.2938 14.72043221 78971
CO-65
1 32785U 08021C   26013.57075001  .00003592  00000-0  24078-3 0  9996
2 32785  97.8113 352.1283 0008905 182.7965 177.3213 15.07504288961886
CO-66
1 32791U 08021J   26013.51217713  .00011798  00000-0  45402-3 0  9996
2 32791  97.7463   4.7849 0005215 113.8679 246.3105 15.26536783963645
RS-30
1 32953U 08025A   26013.58006207  .00000026  00000-0  11908-3 0  9997
2 32953  82.5024  91.6204 0018245 289.0403  70.8701 12.43173298800486
SRMSAT
1 37841U 11058D   26013.42604274  .00000407  00000-0  77371-4 0  9999
2 37841  19.9718 276.1890 0011637 301.2696 214.4510 14.11524364735922
ZACUBE-1
1 39417U 13066B   26013.62727391  .00004112  00000-0  33383-3 0  9990
2 39417  97.8074 335.2281 0042900  46.1744 314.3012 14.99480188657550
Delfi-N3xt
1 39428U 13066N   26013.59461084  .00006554  00000-0  60694-3 0  9999
2 39428  97.8354 294.3203 0078797   1.9466 358.2044 14.92481414651546
GOMX-1
1 39430U 13066Q   26013.58196175  .00001925  00000-0  29847-3 0  9999
2 39430  97.6586 223.7198 0129109 213.5122 145.7869 14.68790866647217
LO-74
1 39440U 13066AA  26013.59244850  .00002921  00000-0  28227-3 0  9993
2 39440  97.8738 322.2379 0059177 178.0225 182.1239 14.92301242653925
AO-73
1 39444U 13066AE  26013.60801775  .00005695  00000-0  38202-3 0  9999
2 39444  97.8092 342.2989 0038991  12.1852 348.0309 15.06634241656362
DTUSAT-2
1 40030U 14033W   26013.50106932  .00006807  00000-0  39618-3 0  9997
2 40030  98.0784   1.7751 0009810  50.3935 309.8158 15.12357113629289
EO-80
1 40032U 14033Y   26013.64196535  .00006175  00000-0  35889-3 0  9996
2 40032  98.0665   1.2734 0007570 356.7560   3.3618 15.12470619629287
LILACSAT-2
1 40908U 15049K   26013.59620872  .00010757  00000-0  22318-3 0  9990
2 40908  97.4889  44.9780 0009624  93.4176 266.8174 15.45850012571829
Horyu-4
1 41340U 16012D   26013.51075621  .00050028  00000-0  73488-3 0  9999
2 41340  30.9936  91.2782 0005402 184.1231 175.9376 15.54184177546493
Lapan A3
1 41603U 16040E   26013.64087112  .00003321  00000-0  11028-3 0  9990
2 41603  97.1440  15.0450 0009707 199.6569 160.4301 15.31853880531145
CAS-2T
1 41847U 16066G   26013.63189648  .00001093  00000-0  16406-3 0  9993
2 41847  98.3993  91.0600 0342516 238.2197 118.5208 14.44232147482489
TechnoSat
1 42829U 17042E   26013.40675208  .00003749  00000-0  27695-3 0  9998
2 42829  97.4042 177.2579 0017391 262.7584  97.1665 15.03695934463435
AO-91
1 43017U 17073E   26013.07201035  .00005893  00000-0  27412-3 0  9997
2 43017  97.4928 243.5675 0159935 142.4698 218.7825 15.09595133441962
S-Net D
1 43186U 18014G   26013.46620000  .00004667  00000-0  25475-3 0  9995
2 43186  97.5486 279.3080 0008082 181.5332 178.5877 15.14809675435329
S-Net B
1 43187U 18014H   26013.47477610  .00005048  00000-0  27538-3 0  9990
2 43187  97.5489 279.2983 0008922 178.4471 181.6790 15.14784168435324
S-Net A
1 43188U 18014J   26013.66394499  .00003801  00000-0  20808-3 0  9993
2 43188  97.5501 279.6676 0008767 177.8885 182.2385 15.14816596435353
S-Net C
1 43189U 18014K   26013.21362402  .00005169  00000-0  28186-3 0  9990
2 43189  97.5514 279.2712 0010334 174.0567 186.0789 15.14774931433831
Ten-Koh
1 43677U 18084G   26013.49041604  .00001842  00000-0  14543-3 0  9993
2 43677  98.0745 199.4037 0007215 279.9853  80.0556 15.02040545392939
PO-101
1 43678U 18084H   26013.61480979  .00002738  00000-0  22733-3 0  9995
2 43678  98.1099 203.3783 0006702 312.4848  47.5807 14.99663030393048
QO-100
1 43700U 18090A   26013.52363891  .00000163  00000-0  00000-0 0  9991
2 43700   0.0172  51.6008 0001722 298.1525 337.5321  1.00272850 26120
MinXSS-2
1 43758U 18099A   26013.16730358  .00018950  00000-0  53378-3 0  9991
2 43758  97.4751  85.9919 0010021 103.5734 256.6626 15.36444288390246
AO-95
1 43770U 18099N   26013.40991640  .00008765  00000-0  37770-3 0  9996
2 43770  97.4634  74.4684 0009750 164.7590 195.3942 15.22771142389636
SNUSat 2
1 43782U 18099AA  26013.08947953  .00007044  00000-0  33969-3 0  9996
2 43782  97.4316  68.9653 0012245 115.5286 244.7216 15.18945814389467
SnugLite
1 43784U 18099AC  26013.12604469  .00007550  00000-0  32237-3 0  9994
2 43784  97.4128  69.1643 0004390 108.1792 251.9923 15.23164643389682
ITASat 1
1 43786U 18099AE  26013.63712174  .00005008  00000-0  25888-3 0  9995
2 43786  97.4284  68.2876 0013559 165.3665 194.7964 15.16643224389460
EAGLET 1
1 43790U 18099AJ  26013.41974251  .00004309  00000-0  25793-3 0  9990
2 43790  97.4484  67.1422 0012033 153.9696 206.2142 15.11479300388941
ESEO
1 43792U 18099AL  26013.55947972  .00000710  00000-0  56033-4 0  9991
2 43792  97.4202  57.4427 0013460 134.3694 225.8637 15.03641336388569
JO-97
1 43803U 18099AX  26013.13049802  .00011224  00000-0  41271-3 0  9992
2 43803  97.4381  75.8625 0007575  99.3997 260.8099 15.28032535389902
Suomi 100
1 43804U 18099AY  26013.63640894  .00008190  00000-0  33778-3 0  9997
2 43804  97.4439  74.8602 0012157 104.3082 255.9506 15.24255065389847
ISAT
1 43879U 18111D   26013.51034341  .00027243  00000-0  58471-3 0  9992
2 43879  97.5910 299.5473 0008360 123.0705 237.1346 15.44651282387145
UWE-4
1 43880U 18111E   26013.50487200  .00015496  00000-0  44039-3 0  9991
2 43880  97.5859 295.9537 0010478 145.5418 214.6507 15.36209553386951
Sparrow
1 43881U 18111F   26013.25053881  .00037393  00000-0  73200-3 0  9990
2 43881  97.6097 303.2329 0005603 143.2076 216.9559 15.47302572387239
Prox-1
1 44339U 19036A   26013.54446447  .00008835  00000-0  95216-3 0  9992
2 44339  23.9965  63.9617 0007102  55.5876 304.5293 14.86172298350403
Taurus 1
1 44530U 19059C   26013.57077153  .00003219  00000-0  54855-3 0  9992
2 44530  98.6232 169.1958 0008761  77.4985 282.7198 14.69756638335912
TO-108
1 44881U 19093C   26013.61470348  .00001211  00000-0  14388-3 0  9994
2 44881  97.7715  89.5287 0012444 232.4103 127.5984 14.86190063328458
FloripaSat 1
1 44885U 19093G   26013.49836249  .00004859  00000-0  37738-3 0  9995
2 44885  97.7977 106.8451 0010371 219.8031 140.2433 15.01763714329419
RS-44
1 44909U 19096E   26013.52133913  .00000000  00000-0 -48797-4 0  9990
2 44909  82.5201  82.4908 0218217 145.8067 215.7311 12.79746582282563
SALSAT
1 46495U 20068K   26013.51788146  .00005979  00000-0  22857-3 0  9993
2 46495  97.8807   7.5233 0012031 119.0256 241.2189 15.26958259291731
CSS (TIANHE-1)
1 48274U 21035A   26013.53537563  .00013458  00000-0  16214-3 0  9993
2 48274  41.4652 183.4811 0011482 277.6213  82.3322 15.60479529268991
CUTE
1 49263U 21088D   26013.46807249  .00026887  00000-0  32058-3 0  9997
2 49263  97.4314 102.7842 0005322 145.6152 214.5450 15.61037106238244
TeikyoSat 4
1 49396U 21102B   26013.63619872  .00002041  00000-0  13341-3 0  9993
2 49396  97.3871  49.0348 0013794 103.4961 256.7806 15.08813979229417
Z-Sat
1 49399U 21102E   26013.64493350  .00004637  00000-0  23838-3 0  9993
2 49399  97.3554  53.6291 0018683  68.3290 291.9931 15.16792148230002
KOSEN 1
1 49402U 21102H   26013.35281568  .00006359  00000-0  26287-3 0  9996
2 49402  97.3436  58.5897 0015527  39.8141 320.4233 15.24217988230415
HO-113
1 50466U 21131B   26013.65725277  .00000793  00000-0  25962-3 0  9998
2 50466  98.5021 106.9157 0003931 187.5479 172.5651 14.41165027212850
SNUGLITE 2
1 52899U 22065F   26013.65420462  .00000932  00000-0  18726-3 0  9990
2 52899  98.1947 159.0137 0008175 142.9832 217.1935 14.63944354188388
